Location: Crescent
(42.8242°N, 73.7329°W)
Time: 17:49:43
(UTC+00:00)

SR - Pass Details

Date: 23 February 2026
Orbit: 572 x 848 km, 66.7° (Epoch: 8 March)

Event Time Altitude Azimuth Distance (km) Brightness Sun altitude
Rises 15:11:06 0° 340° (NNW) 3,062 ? 31.1°
Reaches altitude 10° 15:14:07 10° 360° (N) 2,199 ? 31.4°
Maximum altitude 15:17:30 18° 42° (NE) 1,784 ? 31.7°
Drops below altitude 10° 15:21:02 10° 84° (E) 2,315 ? 32.1°
Sets 15:24:18 0° 104° (ESE) 3,291 ? 32.4°
